Regional Weather Roundup
Issued by NWS Upton, NY

Current Version | Previous Version | Graphics & Text | Print | Product List | Glossary Off
Versions: 1 2 3 4 5 6 7 8 9 10 11 12 13 14 15 16 17 18 19 20 21 22 23 24 25 26 27 28 29 30 31 32 33 34 35 36 37 38 39 40 41 42 43 44 45 46 47 48 49 50

000
ASUS41 KOKX 080608
RWROKX

REGIONAL WEATHER ROUNDUP
NATIONAL WEATHER SERVICE NEW YORK NY
100 AM EST THU DEC 08 2016

NOTE: "FAIR" INDICATES FEW OR NO CLOUDS BELOW 12,000 FEET WITH NO
SIGNIFICANT WEATHER AND/OR OBSTRUCTIONS TO VISIBILITY.

NYZ071-072-176-178-NJZ106-104-080700-
NEW YORK CITY METRO AREA

CITY           SKY/WX    TMP DP  RH WIND       PRES   REMARKS
Central Park   CLEAR     42  31  64 VRB3      30.02F
Wall St Helipt PTCLDY    42  36  79 W5        30.02S
Bronx Bot Gard NOT AVBL
LaGuardia APRT PTCLDY    44  34  67 SW3       30.00F
Kennedy INTL   PTCLDY    42  34  73 W9        30.01F
Breezy Point     N/A     43 N/A N/A W7          N/A
Newark/Liberty MOCLDY    39  34  82 W8        30.01F WCI  33
Teterboro      CLEAR     38  33  82 CALM      30.00F
$$

NYZ177-179-078>081-080700-
LONG ISLAND NEW YORK

CITY           SKY/WX    TMP DP  RH WIND       PRES   REMARKS
Jones Beach      N/A     43 N/A N/A W7          N/A
Matinecock PT  NOT AVBL
Farmingdale    PTCLDY    36  34  92 CALM      30.00F
MacArthur/ISP  PTCLDY    34  32  92 CALM      29.99F
Shirley        PTCLDY    33  32  96 CALM      30.00F FOG
Westhampton    PTCLDY    31  29  92 CALM      30.01F
Southampton    NOT AVBL
Bridgehampton  NOT AVBL
East Hampton     N/A     35  34  97 CALM      29.99F FOG
Montauk          N/A     43  37  79 W3        30.00F
$$

NYZ052-065-067-080700-
HUDSON VALLEY

CITY           SKY/WX    TMP DP  RH WIND       PRES   REMARKS
White Plains   PTCLDY    38  33  82 W5        29.97F WCI  34
Newburgh       MOCLDY    34  34 100 W6        29.99F WCI  29
Montgomery     CLOUDY    33  31  92 SW3       29.98S FOG
Poughkeepsie   PTCLDY    30  30 100 CALM      29.98F
Albany         FOG       34  33  96 CALM      29.98S VSB 1/8
$$

NJZ001-105-106-008-010-013-015-019>022-104-080700-
NEW JERSEY

CITY           SKY/WX    TMP DP  RH WIND       PRES   REMARKS
Newark/Liberty MOCLDY    39  34  82 W8        30.01F WCI  33
Teterboro      CLEAR     38  33  82 CALM      30.00F
Caldwell       PTCLDY    33  31  92 CALM      30.01F
Somerville     FOG       29  27  92 CALM      29.99F VSB 3/4
Linden           N/A     38  33  80 W6        30.01F WCI  34
Sussex         CLOUDY    32  32 100 CALM      29.98F
Andover          N/A     31  31 100 CALM      29.98F
Trenton        PTCLDY    33  30  88 CALM      30.01F
Millville      CLOUDY    28  28 100 CALM      30.04S FOG
Atlantic City  CLEAR     32  29  88 CALM      30.03F FOG
Wrightstown    CLEAR     30  29  95 CALM      29.99F
Toms River     CLEAR     28  27  96 CALM      30.02F
Belmar         PTCLDY    33  31  92 W3        30.02F
$$

PAZ047>061-062-071-080700-
EASTERN PENNSYLVANIA

CITY           SKY/WX    TMP DP  RH WIND       PRES   REMARKS
Philadelphia   CLOUDY    36  33  89 W6        30.04F WCI  31
Allentown      CLOUDY    31  27  85 SW6       30.00F WCI  25
Scranton       CLOUDY    38  27  64 SW5       29.97F WCI  34
$$

CTZ002-004>006-009-010-012-RIZ004-006-007-MAZ004-011-015-080700-
SOUTHERN NEW ENGLAND
 IN CT

CITY           SKY/WX    TMP DP  RH WIND       PRES   REMARKS
Bradley INTL   CLOUDY    33  31  92 CALM      29.98F
Hartford       CLOUDY    34  34 100 CALM      29.99F FOG
Danbury        CLOUDY    30  29  96 CALM      29.99F
Wtrbury/Oxford CLOUDY    34  30  86 CALM      29.98F
Bridgeport     NOT AVBL
Meriden        CLOUDY    35  32  88 CALM      29.99F FOG
New Haven      CLOUDY    36  34  92 CALM      29.99F
Chester          N/A     37  36  93 CALM      29.98F
Groton         PTCLDY    41  38  89 CALM      29.99F
Wilimantic     FOG       35  33  92 NE3       29.99F VSB 1

 IN RI

CITY           SKY/WX    TMP DP  RH WIND       PRES   REMARKS
Providence     CLOUDY    37  34  89 SW5       30.00R WCI  33
Block Island   CLOUDY    43  34  70 NW3       29.99S
Westerly       PTCLDY    40  35  83 CALM      30.00S
 IN MA

CITY           SKY/WX    TMP DP  RH WIND       PRES   REMARKS
Boston         CLEAR     39  35  86 W9        29.98R WCI  33
Worcester      CLOUDY    33  31  92 W10       29.94S WCI  25
Westfield      CLOUDY    30  30 100 CALM      29.97F FOG
Provincetown   PTCLDY    41  33  73 W9        29.97S
Nantucket      CLOUDY    42  38  85 CALM      29.97F
$$

ANZ330-335-338-340-345-350-353-355-080700-
COASTAL MARINE OBSERVATIONS


STATION/POSITION TIME  SKY/WX   TEMP    WIND        PRES    VSBY  WAVE
                                AIR SEA DIR/SP/G                  HT/PER
                 (UTC)          (F)     (DEG/KT/KT) (MB)    (MI)  (FT/S)
NY HARB ENTRANCE NOT AVBL
20 S FIRE ISLAND NOT AVBL
GREAT SOUTH BAY  0530            40 43                N/A
23 SSW MONTAUK P NOT AVBL
15 E BARNEGAT LI 0530               53                N/A           4/ 8
HUDSON CANYON    NOT AVBL
KINGS POINT      0530            43 48              1015.8
EXECUTION ROCKS  0545            45     250/  6/  8   N/A
CENTRAL LI SOUND 0515            45 50  270/  6/ 10   N/A           0
EASTERN LI SOUND NOT AVBL
ROBBINS REEF     0530            41     250/  9/ 10 1016.4
$$


>>>>>>>>>>>>>>>>>>>>>>>>>>>> KEY <<<<<<<<<<<<<<<<<<<<<<<<<<<
>                                                          <
>     SKY/WX - Sky Condition/Present Weather               <
>     TMP    - Temperature in Fahrenheit                   <
>     DP     - Dew Point in Fahrenheit                     <
>     RH     - Relative Humidity in Percent                <
>     WIND   - Direction (from) and Speed in MPH           <
>     PRES   - Mean Sea Level Pressure (inches of Hg)      <
>     WCI    - Wind Chill Index                            <
>     VSB    - VISIBILITY IN MILES                         <
>     HX     - HEAT INDEX                                  <
>     TC     - TEMPERATURE IN CELSIUS                      <
>     VRB    - VARIABLE WIND DIRECTION                     <
>                                                          <
>>>>>>>>>>>>>>>>>>>>>>>>>>>> KEY <<<<<<<<<<<<<<<<<<<<<<<<<<<



USA.gov is the U.S. government's official web portal to all federal, state and local government web resources and services.